When you browse on this site, cookies collect data to enhance your experience and personalize the content and advertising you see.
Visit our Privacy Policy to learn more. By continuing to use the site, you agree to this use of cookies and data.
  • In Hungary
  • List of Countries
  • For 7 days
  • Water Temperature
  • Satellite Maps
  • Weather Map
  • News
  • Weather Widgets
  • user-avatar
    Login

    Hourly Weather Zukow

    Today, 23 May, Thursday

    Time Temperature Precipitation Wind Pressure Humidity
    00:00 +10°C° 0.1 mm 5 mps 750 mmHg 94%
    01:00 +10°C° 0 mm 4 mps 750 mmHg 93%
    02:00 +10°C° 0.1 mm 4 mps 751 mmHg 93%
    03:00 +10°C° 0.1 mm 4 mps 751 mmHg 93%
    04:00 +10°C° 0.1 mm 4 mps 751 mmHg 93%
    05:00 +10°C° 0.1 mm 4 mps 751 mmHg 92%
    06:00 +10°C° 0.1 mm 4 mps 752 mmHg 91%
    07:00 +10°C° 0 mm 3 mps 752 mmHg 90%
    08:00 +11°C° 0 mm 3 mps 752 mmHg 85%
    09:00 +12°C° 0 mm 4 mps 752 mmHg 80%
    10:00 +12°C° 0 mm 4 mps 752 mmHg 75%
    11:00 +14°C° 0 mm 4 mps 752 mmHg 66%
    12:00 +17°C° 0 mm 4 mps 752 mmHg 58%
    13:00 +19°C° 0 mm 3 mps 752 mmHg 46%
    14:00 +19°C° 0 mm 3 mps 752 mmHg 47%
    15:00 +19°C° 0 mm 3 mps 752 mmHg 47%
    16:00 +19°C° 0 mm 4 mps 752 mmHg 47%
    17:00 +18°C° 0 mm 3 mps 752 mmHg 53%
    18:00 +17°C° 0 mm 2 mps 752 mmHg 58%
    19:00 +16°C° 0 mm 2 mps 752 mmHg 64%
    20:00 +14°C° 0 mm 2 mps 752 mmHg 69%
    21:00 +12°C° 0 mm 2 mps 752 mmHg 73%
    22:00 +10°C° 0 mm 2 mps 752 mmHg 77%
    23:00 +10°C° 0 mm 1 mps 752 mmHg 79%

    Tomorrow, 24 May, Friday

    Time Temperature Precipitation Wind Pressure Humidity
    00:00 +9°C° 0 mm 1 mps 752 mmHg 81%
    01:00 +8°C° 0 mm 0 mps 753 mmHg 83%
    02:00 +8°C° 0 mm 1 mps 752 mmHg 83%
    03:00 +8°C° 0 mm 1 mps 752 mmHg 83%
    04:00 +8°C° 0 mm 1 mps 752 mmHg 83%
    05:00 +10°C° 0 mm 1 mps 752 mmHg 77%
    06:00 +12°C° 0 mm 1 mps 752 mmHg 70%
    07:00 +14°C° 0 mm 1 mps 752 mmHg 63%
    08:00 +16°C° 0 mm 1 mps 752 mmHg 57%
    09:00 +19°C° 0 mm 1 mps 752 mmHg 50%
    10:00 +21°C° 0 mm 1 mps 751 mmHg 43%
    11:00 +22°C° 0 mm 1 mps 751 mmHg 40%
    12:00 +21°C° 0 mm 0 mps 751 mmHg 37%
    13:00 +22°C° 0 mm 0 mps 751 mmHg 35%
    14:00 +24°C° 0 mm 1 mps 750 mmHg 35%
    15:00 +24°C° 0 mm 1 mps 750 mmHg 35%
    16:00 +24°C° 0 mm 1 mps 749 mmHg 35%
    17:00 +22°C° 0 mm 1 mps 749 mmHg 43%
    18:00 +21°C° 0 mm 1 mps 749 mmHg 51%
    19:00 +19°C° 0 mm 1 mps 749 mmHg 59%
    20:00 +18°C° 0 mm 1 mps 749 mmHg 64%
    21:00 +16°C° 0 mm 1 mps 749 mmHg 69%
    22:00 +14°C° 0 mm 2 mps 749 mmHg 73%
    23:00 +14°C° 0 mm 2 mps 749 mmHg 77%

    Day after tomorrow, 25 May, Saturday

    Time Temperature Precipitation Wind Pressure Humidity
    00:00 +14°C° 0 mm 2 mps 749 mmHg 81%
    01:00 +13°C° 0 mm 2 mps 749 mmHg 84%
    02:00 +13°C° 0 mm 2 mps 749 mmHg 85%
    03:00 +13°C° 0 mm 2 mps 749 mmHg 87%
    04:00 +12°C° 0 mm 3 mps 749 mmHg 88%
    05:00 +13°C° 0 mm 3 mps 749 mmHg 85%
    06:00 +14°C° 0 mm 3 mps 749 mmHg 82%
    07:00 +16°C° 0 mm 3 mps 749 mmHg 79%
    08:00 +17°C° 0 mm 3 mps 749 mmHg 71%
    09:00 +18°C° 0 mm 4 mps 749 mmHg 63%
    10:00 +19°C° 0 mm 4 mps 750 mmHg 55%
    11:00 +20°C° 0 mm 4 mps 749 mmHg 51%
    12:00 +21°C° 0 mm 4 mps 749 mmHg 48%
    13:00 +22°C° 0 mm 4 mps 749 mmHg 44%
    14:00 +22°C° 0 mm 4 mps 749 mmHg 44%
    15:00 +22°C° 0 mm 4 mps 749 mmHg 45%
    16:00 +22°C° 0 mm 3 mps 749 mmHg 45%
    17:00 +21°C° 0 mm 3 mps 749 mmHg 51%
    18:00 +19°C° 0 mm 2 mps 749 mmHg 58%
    19:00 +18°C° 0 mm 2 mps 749 mmHg 64%
    20:00 +16°C° 0 mm 2 mps 749 mmHg 68%
    21:00 +15°C° 0 mm 1 mps 749 mmHg 72%
    22:00 +14°C° 0 mm 1 mps 749 mmHg 76%
    23:00 +13°C° 0 mm 1 mps 749 mmHg 79%

    26 May, Sunday

    Time Temperature Precipitation Wind Pressure Humidity
    00:00 +12°C° 0 mm 1 mps 749 mmHg 82%
    01:00 +12°C° 0 mm 1 mps 749 mmHg 85%
    02:00 +11°C° 0 mm 1 mps 749 mmHg 87%
    03:00 +10°C° 0 mm 2 mps 749 mmHg 90%
    04:00 +9°C° 0 mm 2 mps 748 mmHg 93%
    05:00 +12°C° 0 mm 2 mps 748 mmHg 87%
    06:00 +12°C° 0 mm 3 mps 748 mmHg 81%
    07:00 +13°C° 0 mm 4 mps 748 mmHg 75%
    08:00 +15°C° 0 mm 4 mps 748 mmHg 68%
    09:00 +17°C° 0 mm 4 mps 748 mmHg 60%
    10:00 +19°C° 0 mm 4 mps 748 mmHg 53%
    11:00 +19°C° 0 mm 5 mps 748 mmHg 51%
    12:00 +20°C° 0 mm 5 mps 747 mmHg 48%
    13:00 +21°C° 0 mm 5 mps 747 mmHg 46%
    14:00 +21°C° 0 mm 5 mps 747 mmHg 48%
    15:00 +21°C° 0 mm 5 mps 747 mmHg 50%
    16:00 +21°C° 0 mm 4 mps 746 mmHg 52%
    17:00 +20°C° 0 mm 4 mps 746 mmHg 56%
    18:00 +19°C° 0 mm 4 mps 746 mmHg 60%
    19:00 +18°C° 0 mm 3 mps 746 mmHg 64%
    20:00 +17°C° 0 mm 3 mps 747 mmHg 71%
    21:00 +14°C° 0 mm 3 mps 747 mmHg 78%
    22:00 +14°C° 0 mm 2 mps 747 mmHg 85%
    23:00 +13°C° 0 mm 3 mps 747 mmHg 87%

    27 May, Monday

    Time Temperature Precipitation Wind Pressure Humidity
    00:00 +12°C° 0 mm 3 mps 747 mmHg 89%
    01:00 +12°C° 0 mm 3 mps 747 mmHg 91%
    02:00 +12°C° 0 mm 3 mps 746 mmHg 89%
    03:00 +12°C° 0 mm 3 mps 745 mmHg 88%
    04:00 +12°C° 0 mm 3 mps 745 mmHg 86%
    05:00 +13°C° 0 mm 4 mps 745 mmHg 81%
    06:00 +15°C° 0 mm 5 mps 745 mmHg 76%
    07:00 +17°C° 0 mm 6 mps 745 mmHg 71%
    08:00 +17°C° 0 mm 6 mps 745 mmHg 70%
    09:00 +17°C° 0 mm 6 mps 745 mmHg 69%
    10:00 +19°C° 0 mm 6 mps 745 mmHg 68%
    11:00 +19°C° 0.2 mm 6 mps 745 mmHg 69%
    12:00 +19°C° 0.2 mm 6 mps 745 mmHg 71%
    13:00 +20°C° 0.2 mm 6 mps 745 mmHg 72%
    14:00 +20°C° 0.2 mm 6 mps 745 mmHg 69%
    15:00 +20°C° 0.2 mm 5 mps 745 mmHg 65%
    16:00 +20°C° 0.2 mm 5 mps 745 mmHg 62%
    17:00 +20°C° 0 mm 4 mps 745 mmHg 65%
    18:00 +19°C° 0 mm 3 mps 745 mmHg 68%
    19:00 +18°C° 0 mm 2 mps 745 mmHg 71%
    20:00 +16°C° 0 mm 2 mps 745 mmHg 76%
    21:00 +15°C° 0 mm 1 mps 745 mmHg 82%
    22:00 +13°C° 0 mm 1 mps 746 mmHg 88%
    23:00 +13°C° 0 mm 1 mps 745 mmHg 89%

    28 May, Tuesday

    Time Temperature Precipitation Wind Pressure Humidity
    00:00 +12°C° 0 mm 1 mps 745 mmHg 91%
    01:00 +11°C° 0 mm 0 mps 745 mmHg 93%
    02:00 +11°C° 0 mm 0 mps 745 mmHg 93%
    03:00 +10°C° 0 mm 0 mps 745 mmHg 93%
    04:00 +10°C° 0 mm 0 mps 745 mmHg 94%
    05:00 +12°C° 0 mm 0 mps 745 mmHg 88%
    06:00 +13°C° 0 mm 0 mps 745 mmHg 82%
    07:00 +15°C° 0 mm 0 mps 745 mmHg 77%
    08:00 +16°C° 0.1 mm 0 mps 745 mmHg 73%
    09:00 +17°C° 0.1 mm 0 mps 745 mmHg 70%
    10:00 +18°C° 0.1 mm 0 mps 745 mmHg 67%
    11:00 +21°C° 0.1 mm 1 mps 744 mmHg 64%
    12:00 +22°C° 0.1 mm 1 mps 744 mmHg 61%
    13:00 +21°C° 0.1 mm 2 mps 744 mmHg 58%
    14:00 +20°C° 0.8 mm 2 mps 744 mmHg 66%
    15:00 +19°C° 0.8 mm 2 mps 744 mmHg 75%
    16:00 +17°C° 0.8 mm 2 mps 744 mmHg 84%
    17:00 +17°C° 0.5 mm 2 mps 744 mmHg 87%
    18:00 +16°C° 0.5 mm 2 mps 744 mmHg 90%
    19:00 +14°C° 0.5 mm 3 mps 744 mmHg 93%
    20:00 +14°C° 0.5 mm 3 mps 744 mmHg 93%
    21:00 +14°C° 0.5 mm 3 mps 745 mmHg 94%
    22:00 +13°C° 0.5 mm 3 mps 745 mmHg 95%
    23:00 +13°C° 0.2 mm 3 mps 745 mmHg 95%
    Show more